| time (UTC) | temp F | wind direction | speed MPH | gust MPH | rain 1hr in | rain 24hr in | rain mn in | humidity % | barometer mb |
| 20260506082000 | 32 | 0 | 0.0 | 0.0 | 0.01 | 0.60 | 0.00 | 95 | 1018.3 |
| 20260506081928 | 32 | 0 | 0.0 | 0.0 | 0.01 | 0.60 | 0.00 | 95 | 1018.3 |
| 20260506081108 | 32 | 0 | 0.0 | 0.0 | 0.01 | 0.61 | 0.00 | 95 | 1018.4 |
| 20260506080359 | 32 | 0 | 0.0 | 0.0 | 0.01 | 0.62 | 0.00 | 95 | 1018.3 |
| 20260506080113 | 32 | 0 | 0.0 | 0.0 | 0.01 | 0.62 | 0.00 | 95 | 1018.3 |
| 20260506073433 | 32 | 22 | 1.0 | 2.0 | 0.00 | 0.61 | 0.00 | 95 | 1018.4 |
| 20260506072533 | 32 | 0 | 1.0 | 4.0 | 0.00 | 0.61 | 0.00 | 95 | 1018.1 |
| 20260506071559 | 32 | 22 | 2.0 | 3.0 | 0.00 | 0.61 | 0.00 | 94 | 1018.0 |
| 20260506070658 | 32 | 0 | 2.0 | 5.0 | 0.00 | 0.61 | 0.00 | 95 | 1018.1 |
| 20260506062224 | 33 | 0 | 3.0 | 6.0 | 0.01 | 0.61 | 0.00 | 94 | 1017.7 |
| 20260506061333 | 33 | 0 | 2.0 | 7.0 | 0.01 | 0.61 | 0.00 | 94 | 1017.5 |
| 20260506060448 | 33 | 0 | 1.0 | 3.0 | 0.01 | 0.61 | 0.00 | 94 | 1017.3 |
| 20260506051041 | 33 | 0 | 1.0 | 2.0 | 0.01 | 0.60 | 0.00 | 94 | 1016.4 |
| 20260506050121 | 33 | 0 | 0.0 | 1.0 | 0.01 | 0.60 | 0.00 | 94 | 1016.3 |
| 20260506044413 | 33 | 0 | 0.0 | 2.0 | 0.01 | 0.60 | 0.00 | 94 | 1016.3 |
| 20260506042508 | 33 | 0 | 0.0 | 0.0 | 0.00 | 0.59 | 0.00 | 94 | 1016.3 |
| 20260506041541 | 33 | 0 | 0.0 | 0.0 | 0.00 | 0.59 | 0.00 | 94 | 1016.1 |
| 20260506040721 | 33 | 0 | 0.0 | 1.0 | 0.00 | 0.59 | 0.00 | 94 | 1015.9 |
| 20260506035808 | 33 | 0 | 0.0 | 1.0 | 0.00 | 0.59 | 0.00 | 94 | 1015.8 |
| 20260506034953 | 33 | 0 | 0.0 | 0.0 | 0.00 | 0.59 | 0.00 | 94 | 1015.8 |
| 20260506034504 | 33 | 0 | 0.0 | 0.0 | 0.01 | 0.59 | 0.00 | 94 | 1015.8 |
| 20260506034058 | 33 | 0 | 0.0 | 0.0 | 0.01 | 0.59 | 0.00 | 94 | 1015.8 |
| 20260506033118 | 33 | 0 | 0.0 | 2.0 | 0.01 | 0.59 | 0.00 | 94 | 1015.6 |
| 20260506032301 | 33 | 0 | 0.0 | 1.0 | 0.01 | 0.59 | 0.00 | 94 | 1015.5 |
| 20260506031313 | 33 | 0 | 0.0 | 1.0 | 0.01 | 0.61 | 0.00 | 94 | 1015.5 |
| 20260506025506 | 33 | 315 | 1.0 | 2.0 | 0.01 | 0.62 | 0.00 | 94 | 1015.0 |
| 20260506025401 | 33 | 315 | 1.0 | 2.0 | 0.01 | 0.62 | 0.00 | 94 | 1015.0 |
| 20260506024443 | 33 | 0 | 0.0 | 1.0 | 0.00 | 0.62 | 0.00 | 94 | 1014.7 |
| 20260506023917 | 33 | 0 | 0.0 | 3.0 | 0.00 | 0.63 | 0.00 | 94 | 1014.5 |
| 20260506023633 | 33 | 0 | 0.0 | 3.0 | 0.00 | 0.63 | 0.00 | 94 | 1014.5 |
| 20260506023007 | 33 | 0 | 0.0 | 1.0 | 0.00 | 0.63 | 0.00 | 94 | 1014.4 |
| 20260506022828 | 33 | 0 | 0.0 | 1.0 | 0.00 | 0.63 | 0.00 | 94 | 1014.4 |
| 20260506021913 | 33 | 0 | 0.0 | 2.0 | 0.00 | 0.63 | 0.00 | 94 | 1014.0 |
| 20260506020933 | 33 | 0 | 1.0 | 3.0 | 0.00 | 0.63 | 0.00 | 94 | 1013.7 |
| 20260506015953 | 33 | 292 | 1.0 | 2.0 | 0.00 | 0.63 | 0.00 | 94 | 1013.7 |
| 20260506015916 | 33 | 338 | 1.0 | 3.0 | 0.00 | 0.63 | 0.00 | 94 | 1013.6 |
| 20260506015058 | 33 | 338 | 1.0 | 3.0 | 0.00 | 0.63 | 0.00 | 94 | 1013.6 |
| 20260506014937 | 33 | 338 | 1.0 | 2.0 | 0.00 | 0.63 | 0.00 | 94 | 1013.4 |
| 20260506014134 | 33 | 338 | 1.0 | 2.0 | 0.00 | 0.63 | 0.00 | 94 | 1013.4 |
| 20260506013919 | 33 | 0 | 0.0 | 3.0 | 0.00 | 0.63 | 0.00 | 94 | 1013.2 |
| 20260506013241 | 33 | 0 | 0.0 | 3.0 | 0.00 | 0.63 | 0.00 | 94 | 1013.2 |
| 20260506012438 | 33 | 315 | 1.0 | 2.0 | 0.01 | 0.63 | 0.00 | 94 | 1013.0 |
| 20260506011533 | 33 | 0 | 1.0 | 2.0 | 0.01 | 0.63 | 0.00 | 94 | 1012.8 |
| 20260506010658 | 33 | 0 | 1.0 | 2.0 | 0.01 | 0.63 | 0.00 | 94 | 1012.9 |
| 20260506005749 | 33 | 0 | 2.0 | 3.0 | 0.01 | 0.63 | 0.00 | 94 | 1012.7 |
| 20260506004833 | 33 | 0 | 2.0 | 4.0 | 0.01 | 0.63 | 0.00 | 94 | 1012.5 |
| 20260506004031 | 33 | 338 | 2.0 | 3.0 | 0.01 | 0.63 | 0.00 | 94 | 1012.7 |
| 20260506003309 | 33 | 338 | 2.0 | 4.0 | 0.01 | 0.63 | 0.00 | 94 | 1012.5 |
| 20260506003221 | 33 | 338 | 2.0 | 4.0 | 0.01 | 0.63 | 0.00 | 94 | 1012.5 |
| 20260506002233 | 33 | 0 | 1.0 | 4.0 | 0.00 | 0.62 | 0.00 | 94 | 1012.4 |
| 20260506001418 | 33 | 315 | 2.0 | 4.0 | 0.00 | 0.62 | 0.00 | 94 | 1012.3 |
| 20260506000538 | 33 | 292 | 1.0 | 4.0 | 0.00 | 0.62 | 0.00 | 94 | 1012.3 |
| 20260505235604 | 33 | 0 | 1.0 | 3.0 | 0.00 | 0.62 | 0.00 | 94 | 1012.1 |
| 20260505234653 | 33 | 315 | 1.0 | 2.0 | 0.00 | 0.62 | 0.00 | 94 | 1011.9 |
| 20260505233818 | 33 | 0 | 2.0 | 4.0 | 0.00 | 0.62 | 0.00 | 94 | 1011.7 |
| 20260505232825 | 33 | 0 | 2.0 | 5.0 | 0.00 | 0.62 | 0.00 | 94 | 1011.6 |
| 20260505231839 | 33 | 338 | 3.0 | 6.0 | 0.00 | 0.62 | 0.00 | 94 | 1012.0 |
| 20260505230958 | 33 | 0 | 2.0 | 6.0 | 0.01 | 0.62 | 0.00 | 94 | 1011.6 |
| 20260505230018 | 33 | 338 | 2.0 | 4.0 | 0.01 | 0.63 | 0.00 | 94 | 1011.8 |
| 20260505225126 | 33 | 338 | 3.0 | 5.0 | 0.01 | 0.64 | 0.00 | 93 | 1011.8 |
| 20260505224318 | 33 | 0 | 3.0 | 7.0 | 0.01 | 0.65 | 0.00 | 93 | 1011.6 |
| 20260505223338 | 33 | 338 | 3.0 | 10.0 | 0.01 | 0.65 | 0.00 | 93 | 1011.0 |
| 20260505222431 | 33 | 0 | 5.0 | 12.0 | 0.01 | 0.65 | 0.00 | 93 | 1010.9 |
| 20260505221613 | 33 | 0 | 7.0 | 15.0 | 0.01 | 0.65 | 0.00 | 93 | 1011.0 |
| 20260505220633 | 34 | 0 | 6.0 | 14.0 | 0.01 | 0.64 | 0.00 | 93 | 1010.7 |
| 20260505215658 | 34 | 0 | 4.0 | 9.0 | 0.02 | 0.64 | 0.00 | 93 | 1010.6 |
| 20260505214748 | 35 | 0 | 7.0 | 16.0 | 0.04 | 0.64 | 0.00 | 93 | 1010.4 |
| 20260505213901 | 35 | 0 | 6.0 | 12.0 | 0.05 | 0.64 | 0.00 | 93 | 1010.2 |
| 20260505212033 | 35 | 0 | 5.0 | 13.0 | 0.07 | 0.64 | 0.00 | 93 | 1010.1 |
| 20260505211138 | 35 | 0 | 7.0 | 17.0 | 0.06 | 0.63 | 0.00 | 93 | 1010.4 |
| 20260505210243 | 34 | 0 | 5.0 | 11.0 | 0.06 | 0.62 | 0.00 | 93 | 1010.4 |
| 20260505205443 | 34 | 0 | 5.0 | 10.0 | 0.07 | 0.60 | 0.00 | 92 | 1010.2 |
| 20260505204458 | 34 | 0 | 3.0 | 11.0 | 0.07 | 0.60 | 0.00 | 92 | 1010.2 |
| 20260505203553 | 35 | 0 | 5.0 | 9.0 | 0.07 | 0.60 | 0.00 | 92 | 1010.4 |
| 20260505202701 | 35 | 0 | 4.0 | 9.0 | 0.07 | 0.59 | 0.00 | 91 | 1010.5 |
| 20260505201803 | 35 | 0 | 6.0 | 13.0 | 0.06 | 0.58 | 0.00 | 90 | 1010.5 |
| 20260505200819 | 38 | 0 | 5.0 | 11.0 | 0.07 | 0.58 | 0.00 | 91 | 1010.6 |
| 20260505200013 | 38 | 0 | 4.0 | 10.0 | 0.05 | 0.55 | 0.00 | 92 | 1010.4 |
| 20260505195041 | 39 | 0 | 2.0 | 5.0 | 0.05 | 0.54 | 0.00 | 92 | 1010.2 |
| 20260505194058 | 39 | 0 | 2.0 | 5.0 | 0.05 | 0.53 | 0.00 | 92 | 1010.3 |
| 20260505192227 | 39 | 338 | 2.0 | 5.0 | 0.04 | 0.52 | 0.00 | 92 | 1010.2 |
| 20260505191358 | 39 | 0 | 2.0 | 4.0 | 0.03 | 0.51 | 0.00 | 92 | 1009.8 |
| 20260505190533 | 39 | 45 | 2.0 | 5.0 | 0.03 | 0.51 | 0.00 | 92 | 1009.8 |
| 20260505185613 | 39 | 22 | 1.0 | 3.0 | 0.03 | 0.50 | 0.00 | 92 | 1009.7 |
| 20260505183021 | 39 | 22 | 1.0 | 2.0 | 0.03 | 0.48 | 0.00 | 93 | 1009.8 |
| 20260505182113 | 39 | 0 | 0.0 | 2.0 | 0.04 | 0.48 | 0.00 | 93 | 1010.1 |
| 20260505181138 | 38 | 338 | 1.0 | 3.0 | 0.04 | 0.48 | 0.00 | 93 | 1010.1 |
| 20260505180338 | 38 | 248 | 1.0 | 2.0 | 0.05 | 0.48 | 0.00 | 94 | 1010.2 |
| 20260505174653 | 37 | 90 | 1.0 | 3.0 | 0.04 | 0.47 | 0.00 | 93 | 1010.1 |
| 20260505173721 | 37 | 0 | 0.0 | 2.0 | 0.03 | 0.45 | 0.00 | 94 | 1010.1 |
| 20260505172733 | 37 | 22 | 1.0 | 2.0 | 0.03 | 0.45 | 0.00 | 93 | 1010.0 |
| 20260505171754 | 38 | 0 | 0.0 | 2.0 | 0.03 | 0.44 | 0.00 | 94 | 1010.4 |
| 20260505171316 | 38 | 248 | 1.0 | 3.0 | 0.02 | 0.43 | 0.00 | 94 | 1010.6 |
| 20260505170828 | 38 | 248 | 1.0 | 3.0 | 0.02 | 0.43 | 0.00 | 94 | 1010.6 |
| 20260505165923 | 37 | 248 | 1.0 | 3.0 | 0.02 | 0.43 | 0.00 | 94 | 1010.4 |
| 20260505164953 | 37 | 22 | 1.0 | 2.0 | 0.03 | 0.43 | 0.00 | 94 | 1010.1 |
| 20260505164058 | 37 | 22 | 1.0 | 2.0 | 0.02 | 0.42 | 0.00 | 94 | 1010.0 |
| 20260505163101 | 37 | 45 | 2.0 | 3.0 | 0.03 | 0.42 | 0.00 | 94 | 1010.1 |
| 20260505162158 | 37 | 0 | 1.0 | 4.0 | 0.03 | 0.42 | 0.00 | 94 | 1010.2 |
| 20260505161258 | 36 | 0 | 1.0 | 3.0 | 0.03 | 0.41 | 0.00 | 94 | 1010.1 |
| 20260505160433 | 36 | 0 | 1.0 | 2.0 | 0.03 | 0.41 | 0.00 | 94 | 1010.2 |
| 20260505152108 | 35 | 0 | 1.0 | 4.0 | 0.05 | 0.39 | 0.00 | 93 | 1010.2 |
| 20260505151213 | 35 | 338 | 1.0 | 3.0 | 0.05 | 0.38 | 0.00 | 93 | 1010.3 |
| 20260505150213 | 35 | 338 | 1.0 | 3.0 | 0.06 | 0.38 | 0.00 | 94 | 1010.1 |
| 20260505140118 | 34 | 0 | 2.0 | 4.0 | 0.05 | 0.32 | 0.00 | 93 | 1009.9 |
| 20260505123333 | 34 | 338 | 1.0 | 3.0 | 0.04 | 0.26 | 0.00 | 92 | 1008.9 |
| 20260505122358 | 34 | 0 | 2.0 | 5.0 | 0.05 | 0.26 | 0.00 | 93 | 1008.8 |
| 20260505120601 | 34 | 338 | 2.0 | 4.0 | 0.05 | 0.25 | 0.00 | 92 | 1008.7 |
| 20260505115709 | 34 | 0 | 4.0 | 7.0 | 0.05 | 0.24 | 0.00 | 92 | 1008.7 |
| 20260505114029 | 34 | 22 | 3.0 | 6.0 | 0.05 | 0.23 | 0.00 | 92 | 1008.4 |
| 20260505113123 | 34 | 22 | 3.0 | 7.0 | 0.04 | 0.22 | 0.00 | 92 | 1008.2 |
| 20260505112508 | 35 | 0 | 3.0 | 6.0 | 0.04 | 0.21 | 0.00 | 91 | 1008.1 |
| 20260505112227 | 35 | 0 | 3.0 | 6.0 | 0.04 | 0.21 | 0.00 | 91 | 1008.1 |
| 20260505111418 | 35 | 0 | 3.0 | 10.0 | 0.04 | 0.20 | 0.00 | 91 | 1007.9 |
| 20260505101748 | 38 | 0 | 6.0 | 14.0 | 0.03 | 0.16 | 0.00 | 91 | 1007.5 |
| 20260505100801 | 39 | 0 | 7.0 | 13.0 | 0.02 | 0.15 | 0.00 | 90 | 1007.1 |
| 20260505095941 | 41 | 0 | 6.0 | 15.0 | 0.01 | 0.14 | 0.00 | 92 | 1006.9 |
| 20260505095058 | 41 | 0 | 6.0 | 18.0 | 0.01 | 0.14 | 0.00 | 92 | 1006.7 |
| 20260505094118 | 41 | 0 | 6.0 | 14.0 | 0.01 | 0.14 | 0.00 | 91 | 1006.6 |
| 20260505092428 | 42 | 0 | 4.0 | 9.0 | 0.02 | 0.13 | 0.00 | 92 | 1006.3 |
| 20260505090609 | 42 | 0 | 7.0 | 12.0 | 0.03 | 0.13 | 0.00 | 91 | 1006.1 |
| 20260505085648 | 42 | 0 | 5.0 | 13.0 | 0.04 | 0.13 | 0.00 | 91 | 1006.2 |
| 20260505083758 | 43 | 0 | 7.0 | 16.0 | 0.03 | 0.12 | 0.00 | 90 | 1006.0 |
| 20260505082914 | 43 | 0 | 7.0 | 15.0 | 0.03 | 0.12 | 0.00 | 90 | 1005.8 |